Aeroporto :
LOGIN :

Iscrizione | Disclaimer

   EN    FR    IT 

 










Sommario :    VFR   VFR Marginale   IFR   IFR Intensivo   IFR Molto Intensivo
Visibilità : 
Base nubi : 
>= 8 km
>= 3000ft
5 / 8 km
1000 / 3000 ft
1500m / 5 km
500 / 1000 ft
800 / 1500m
200 / 500 ft
< 800m
< 200 ft
Simboli :   Temporali  Nebbia  Neve Forte  Precipitazioni Forti  Vento > 20 kt
SIGMETs :   Varie  Temporali  Ghiacco  Turbolenza  Onda orograficha  Ceneri Vulcaniche







- Altitudine del aeroporto : 295 ft
- Codice IATA : BWE


EDVE - Braunschweig

ULTIMO METAR :
  • 241620Z 29010KT 9999 FEW013 SCT050 BKN098 09/06 Q1029

METARs OBSOLETI :
  • 241550Z 30014KT 9999 FEW013 SCT037 BKN048 10/05 Q1029
  • 241520Z 27011KT 9999 FEW025 10/06 Q1029
  • 241450Z 28012KT CAVOK 10/06 Q1029
  • 241420Z 28013KT 9999 FEW047 SCT055 BKN062 09/06 Q1029

TAF TAF EDVE
Valido dal 24 a 15 ore il 24 a 21 ore UTC


241400Z 2415/2421 29012G22KT 9999 FEW035
TEMPO 2415/2419 33020G35KT SHRA SCT015CB
PROB40
TEMPO 2415/2417 3500 TSGS
BECMG 2418/2421 29007KT
Nessun NOTAM noto per questo aeroporto.



MetMap, La meteo Aeronautica in un colpo d'occhio ! - Copyright ORBIFLY Dicembre 2007 - Disclaimer

ORBIFLY MET'MAP TEAM :

Programmazione e sviluppo : Alexandra Zaïnal
Concezione e sviluppo : Baudouin d'Aumeries
Co-Programmazione e sviluppo : Marc-Olivier Méhu
Supporto tecnico e logistico : Manuel Goepfert
Aiuto per la traduzione : Arnaldo La Scala

Contatto : metmap@orbifly.com




FONTI E CREDITI :

   NOAA